• In Österreich
  • Länderverzeichnis
  • Für 7 Tage
  • Wassertemperatur
  • Satellitenkarten
  • Wetterkarte
  • News
  • Widgets
  • user-avatar
    Anmelden

    Stündliche Wetter Mingora

    Heute, 22 Oktober, Montag

    Zeit Temperatur Niederschläge Wind Luftdruck Luftfeuchtigkeit
    00:00 +14°C° 0 mm 3 m/S 678 mmHg 33%
    01:00 +13°C° 0 mm 3 m/S 678 mmHg 33%
    02:00 +13°C° 0 mm 3 m/S 678 mmHg 33%
    03:00 +13°C° 0 mm 3 m/S 677 mmHg 32%
    04:00 +12°C° 0 mm 4 m/S 677 mmHg 32%
    05:00 +13°C° 0 mm 4 m/S 677 mmHg 30%
    06:00 +14°C° 0 mm 3 m/S 677 mmHg 30%
    07:00 +16°C° 0 mm 3 m/S 678 mmHg 29%
    08:00 +17°C° 0 mm 3 m/S 678 mmHg 28%
    09:00 +19°C° 0 mm 2 m/S 678 mmHg 24%
    10:00 +21°C° 0 mm 2 m/S 678 mmHg 21%
    11:00 +25°C° 0 mm 1 m/S 678 mmHg 19%
    12:00 +25°C° 0 mm 2 m/S 678 mmHg 19%
    13:00 +25°C° 0 mm 2 m/S 677 mmHg 19%
    14:00 +25°C° 0 mm 2 m/S 677 mmHg 19%
    15:00 +24°C° 0 mm 2 m/S 677 mmHg 22%
    16:00 +23°C° 0 mm 1 m/S 676 mmHg 26%
    17:00 +22°C° 0 mm 1 m/S 676 mmHg 29%
    18:00 +19°C° 0 mm 2 m/S 676 mmHg 30%
    19:00 +18°C° 0 mm 2 m/S 677 mmHg 30%
    20:00 +16°C° 0 mm 2 m/S 677 mmHg 31%
    21:00 +16°C° 0 mm 3 m/S 677 mmHg 30%
    22:00 +14°C° 0 mm 3 m/S 677 mmHg 30%
    23:00 +13°C° 0 mm 3 m/S 677 mmHg 29%

    Morgen, 23 Oktober, Dienstag

    Zeit Temperatur Niederschläge Wind Luftdruck Luftfeuchtigkeit
    00:00 +13°C° 0 mm 3 m/S 677 mmHg 29%
    01:00 +13°C° 0 mm 3 m/S 676 mmHg 28%
    02:00 +12°C° 0 mm 3 m/S 676 mmHg 28%
    03:00 +12°C° 0 mm 3 m/S 676 mmHg 28%
    04:00 +12°C° 0 mm 3 m/S 676 mmHg 27%
    05:00 +12°C° 0 mm 3 m/S 676 mmHg 27%
    06:00 +13°C° 0 mm 3 m/S 677 mmHg 26%
    07:00 +14°C° 0 mm 3 m/S 677 mmHg 26%
    08:00 +16°C° 0 mm 3 m/S 677 mmHg 25%
    09:00 +18°C° 0 mm 2 m/S 678 mmHg 23%
    10:00 +20°C° 0 mm 2 m/S 678 mmHg 20%
    11:00 +23°C° 0 mm 1 m/S 678 mmHg 17%
    12:00 +24°C° 0 mm 1 m/S 678 mmHg 17%
    13:00 +24°C° 0 mm 2 m/S 678 mmHg 18%
    14:00 +25°C° 0 mm 2 m/S 677 mmHg 18%
    15:00 +23°C° 0 mm 2 m/S 677 mmHg 21%
    16:00 +22°C° 0 mm 1 m/S 677 mmHg 24%
    17:00 +21°C° 0 mm 1 m/S 677 mmHg 27%
    18:00 +19°C° 0 mm 1 m/S 677 mmHg 28%
    19:00 +17°C° 0 mm 2 m/S 677 mmHg 28%
    20:00 +15°C° 0 mm 2 m/S 677 mmHg 29%
    21:00 +14°C° 0 mm 3 m/S 677 mmHg 29%
    22:00 +13°C° 0 mm 3 m/S 677 mmHg 29%
    23:00 +13°C° 0 mm 3 m/S 677 mmHg 28%

    übermorgen, 24 Oktober, Mittwoch

    Zeit Temperatur Niederschläge Wind Luftdruck Luftfeuchtigkeit
    00:00 +13°C° 0 mm 3 m/S 677 mmHg 28%
    01:00 +12°C° 0 mm 3 m/S 677 mmHg 28%
    02:00 +12°C° 0 mm 3 m/S 677 mmHg 27%
    03:00 +12°C° 0 mm 3 m/S 676 mmHg 27%
    04:00 +12°C° 0 mm 3 m/S 676 mmHg 27%
    05:00 +12°C° 0 mm 3 m/S 676 mmHg 26%
    06:00 +13°C° 0 mm 3 m/S 676 mmHg 26%
    07:00 +14°C° 0 mm 3 m/S 677 mmHg 25%
    08:00 +16°C° 0 mm 3 m/S 677 mmHg 24%
    09:00 +18°C° 0 mm 2 m/S 678 mmHg 21%
    10:00 +20°C° 0 mm 2 m/S 678 mmHg 18%
    11:00 +24°C° 0 mm 1 m/S 679 mmHg 16%
    12:00 +24°C° 0 mm 1 m/S 678 mmHg 16%
    13:00 +24°C° 0 mm 2 m/S 678 mmHg 16%
    14:00 +25°C° 0 mm 2 m/S 677 mmHg 16%
    15:00 +23°C° 0 mm 2 m/S 677 mmHg 20%
    16:00 +22°C° 0 mm 1 m/S 677 mmHg 23%
    17:00 +20°C° 0 mm 1 m/S 677 mmHg 26%
    18:00 +19°C° 0 mm 1 m/S 677 mmHg 26%
    19:00 +17°C° 0 mm 2 m/S 677 mmHg 26%
    20:00 +14°C° 0 mm 3 m/S 677 mmHg 26%
    21:00 +14°C° 0 mm 3 m/S 678 mmHg 26%
    22:00 +14°C° 0 mm 3 m/S 678 mmHg 26%
    23:00 +13°C° 0 mm 3 m/S 678 mmHg 25%

    25 Oktober, Donnerstag

    Zeit Temperatur Niederschläge Wind Luftdruck Luftfeuchtigkeit
    00:00 +13°C° 0 mm 3 m/S 678 mmHg 25%
    01:00 +13°C° 0 mm 3 m/S 677 mmHg 25%
    02:00 +12°C° 0 mm 3 m/S 677 mmHg 24%
    03:00 +12°C° 0 mm 3 m/S 677 mmHg 24%
    04:00 +12°C° 0 mm 3 m/S 677 mmHg 24%
    05:00 +12°C° 0 mm 3 m/S 677 mmHg 24%
    06:00 +13°C° 0 mm 3 m/S 677 mmHg 24%
    07:00 +14°C° 0 mm 3 m/S 678 mmHg 24%
    08:00 +16°C° 0 mm 3 m/S 678 mmHg 24%
    09:00 +19°C° 0 mm 2 m/S 679 mmHg 21%
    10:00 +21°C° 0 mm 2 m/S 679 mmHg 17%
    11:00 +24°C° 0 mm 1 m/S 680 mmHg 14%
    12:00 +24°C° 0 mm 1 m/S 679 mmHg 14%
    13:00 +25°C° 0 mm 2 m/S 679 mmHg 15%
    14:00 +25°C° 0 mm 2 m/S 678 mmHg 15%
    15:00 +24°C° 0 mm 2 m/S 678 mmHg 18%
    16:00 +22°C° 0 mm 1 m/S 678 mmHg 22%
    17:00 +21°C° 0 mm 1 m/S 678 mmHg 25%
    18:00 +20°C° 0 mm 1 m/S 678 mmHg 25%
    19:00 +18°C° 0 mm 2 m/S 679 mmHg 25%
    20:00 +17°C° 0 mm 2 m/S 679 mmHg 25%
    21:00 +16°C° 0 mm 3 m/S 679 mmHg 25%
    22:00 +14°C° 0 mm 3 m/S 679 mmHg 26%
    23:00 +14°C° 0 mm 3 m/S 680 mmHg 26%

    26 Oktober, Freitag

    Zeit Temperatur Niederschläge Wind Luftdruck Luftfeuchtigkeit
    00:00 +13°C° 0 mm 3 m/S 679 mmHg 26%
    01:00 +13°C° 0 mm 3 m/S 679 mmHg 26%
    02:00 +13°C° 0 mm 3 m/S 679 mmHg 26%
    03:00 +12°C° 0 mm 3 m/S 679 mmHg 26%
    04:00 +12°C° 0 mm 3 m/S 679 mmHg 26%
    05:00 +12°C° 0 mm 3 m/S 679 mmHg 26%
    06:00 +13°C° 0 mm 3 m/S 679 mmHg 25%
    07:00 +14°C° 0 mm 3 m/S 680 mmHg 25%
    08:00 +17°C° 0 mm 3 m/S 680 mmHg 24%
    09:00 +19°C° 0 mm 2 m/S 681 mmHg 21%
    10:00 +21°C° 0 mm 2 m/S 681 mmHg 18%
    11:00 +25°C° 0 mm 1 m/S 681 mmHg 14%
    12:00 +25°C° 0 mm 1 m/S 681 mmHg 15%
    13:00 +25°C° 0 mm 2 m/S 680 mmHg 15%
    14:00 +26°C° 0 mm 2 m/S 680 mmHg 15%
    15:00 +24°C° 0 mm 2 m/S 679 mmHg 18%
    16:00 +23°C° 0 mm 1 m/S 679 mmHg 22%
    17:00 +21°C° 0 mm 1 m/S 679 mmHg 26%
    18:00 +20°C° 0 mm 1 m/S 679 mmHg 25%
    19:00 +17°C° 0 mm 2 m/S 679 mmHg 25%
    20:00 +16°C° 0 mm 2 m/S 679 mmHg 25%
    21:00 +16°C° 0 mm 3 m/S 679 mmHg 25%
    22:00 +14°C° 0 mm 3 m/S 679 mmHg 24%
    23:00 +14°C° 0 mm 3 m/S 679 mmHg 23%

    27 Oktober, Samstag

    Zeit Temperatur Niederschläge Wind Luftdruck Luftfeuchtigkeit
    00:00 +14°C° 0 mm 3 m/S 679 mmHg 23%
    01:00 +14°C° 0 mm 3 m/S 679 mmHg 22%
    02:00 +13°C° 0 mm 3 m/S 678 mmHg 21%
    03:00 +13°C° 0 mm 3 m/S 678 mmHg 21%
    04:00 +13°C° 0 mm 3 m/S 678 mmHg 20%
    05:00 +13°C° 0 mm 3 m/S 678 mmHg 20%
    06:00 +14°C° 0 mm 3 m/S 679 mmHg 20%
    07:00 +16°C° 0 mm 3 m/S 679 mmHg 21%
    08:00 +18°C° 0 mm 3 m/S 680 mmHg 21%
    09:00 +20°C° 0 mm 2 m/S 680 mmHg 19%
    10:00 +23°C° 0 mm 2 m/S 681 mmHg 16%
    11:00 +26°C° 0 mm 1 m/S 681 mmHg 13%
    12:00 +26°C° 0 mm 2 m/S 680 mmHg 14%
    13:00 +27°C° 0 mm 2 m/S 680 mmHg 14%
    14:00 +27°C° 0 mm 2 m/S 679 mmHg 14%
    15:00 +25°C° 0 mm 2 m/S 679 mmHg 18%
    16:00 +24°C° 0 mm 1 m/S 679 mmHg 22%
    17:00 +22°C° 0 mm 1 m/S 678 mmHg 26%
    18:00 +21°C° 0 mm 1 m/S 679 mmHg 26%
    19:00 +18°C° 0 mm 2 m/S 679 mmHg 26%
    20:00 +17°C° 0 mm 2 m/S 679 mmHg 27%
    21:00 +17°C° 0 mm 3 m/S 679 mmHg 26%
    22:00 +17°C° 0 mm 3 m/S 679 mmHg 26%
    23:00 +16°C° 0 mm 3 m/S 679 mmHg 26%

    28 Oktober, Sonntag

    Zeit Temperatur Niederschläge Wind Luftdruck Luftfeuchtigkeit
    00:00 +16°C° 0 mm 3 m/S 679 mmHg 25%
    01:00 +16°C° 0 mm 3 m/S 679 mmHg 25%
    02:00 +16°C° 0 mm 3 m/S 678 mmHg 24%
    03:00 +16°C° 0 mm 3 m/S 678 mmHg 24%
    04:00 +14°C° 0 mm 3 m/S 678 mmHg 23%
    05:00 +14°C° 0 mm 3 m/S 678 mmHg 23%
    06:00 +17°C° 0 mm 3 m/S 679 mmHg 23%
    07:00 +18°C° 0 mm 3 m/S 679 mmHg 23%
    08:00 +19°C° 0 mm 3 m/S 679 mmHg 23%
    09:00 +21°C° 0 mm 2 m/S 680 mmHg 20%
    10:00 +25°C° 0 mm 2 m/S 680 mmHg 18%
    11:00 +27°C° 0 mm 2 m/S 680 mmHg 15%
    12:00 +27°C° 0 mm 2 m/S 679 mmHg 15%
    13:00 +27°C° 0 mm 2 m/S 679 mmHg 16%
    14:00 +28°C° 0 mm 2 m/S 679 mmHg 16%
    15:00 +26°C° 0 mm 2 m/S 678 mmHg 21%
    16:00 +24°C° 0 mm 1 m/S 678 mmHg 25%
    17:00 +22°C° 0 mm 1 m/S 677 mmHg 29%
    18:00 +21°C° 0 mm 1 m/S 678 mmHg 29%
    19:00 +19°C° 0 mm 2 m/S 678 mmHg 29%
    20:00 +18°C° 0 mm 2 m/S 678 mmHg 30%
    21:00 +18°C° 0 mm 2 m/S 678 mmHg 29%
    22:00 +17°C° 0 mm 2 m/S 678 mmHg 29%
    23:00 +17°C° 0 mm 2 m/S 678 mmHg 28%
    Mehr zeigen